Time,TemperatureF,DewpointF,PressureIn,WindDirection,WindDirectionDegrees,WindSpeedMPH,WindSpeedGustMPH,Humidity,HourlyPrecipIn,Conditions,Clouds,dailyrainin,SoftwareType,DateUTC
2013-03-16 00:02:00,27.0,27.0,-100.00,North,10,1.0,6.0,99,-99.99,,,-99.99,,2013-03-16 05:02:00,
2013-03-16 00:12:00,27.0,27.0,-100.00,North,10,1.0,6.0,99,-99.99,,,-99.99,,2013-03-16 05:12:00,
2013-03-16 00:22:00,27.0,27.0,-100.00,North,10,1.0,6.0,99,-99.99,,,-99.99,,2013-03-16 05:22:00,
2013-03-16 00:30:00,27.0,27.0,-100.00,NE,35,2.0,5.0,99,-99.99,,,-99.99,,2013-03-16 05:30:00,
2013-03-16 00:53:00,27.0,27.0,-100.00,NE,35,2.0,5.0,99,-99.99,,,-99.99,,2013-03-16 05:53:00,
2013-03-16 01:02:00,27.0,27.0,-100.00,NE,35,2.0,5.0,99,-99.99,,,-99.99,,2013-03-16 06:02:00,
2013-03-16 01:12:00,27.0,27.0,-100.00,NE,35,2.0,5.0,99,-99.99,,,-99.99,,2013-03-16 06:12:00,
2013-03-16 01:22:00,27.0,27.0,-100.00,NE,35,2.0,5.0,99,-99.99,,,-99.99,,2013-03-16 06:22:00,
2013-03-16 01:52:00,26.0,26.0,-100.00,North,0,1.0,7.0,99,-99.99,,,-99.99,,2013-03-16 06:52:00,
2013-03-16 02:02:00,26.0,26.0,-100.00,North,0,1.0,7.0,99,-99.99,,,-99.99,,2013-03-16 07:02:00,
2013-03-16 02:12:00,26.0,26.0,-100.00,North,0,1.0,7.0,99,-99.99,,,-99.99,,2013-03-16 07:12:00,
2013-03-16 02:22:00,26.0,26.0,-100.00,North,0,1.0,7.0,99,-99.99,,,-99.99,,2013-03-16 07:22:00,
2013-03-16 02:52:00,25.0,24.0,-100.00,North,10,2.0,9.0,99,-99.99,,,-99.99,,2013-03-16 07:52:00,
2013-03-16 03:02:00,25.0,24.0,-100.00,North,10,2.0,9.0,99,-99.99,,,-99.99,,2013-03-16 08:02:00,
2013-03-16 03:12:00,25.0,24.0,-100.00,North,10,2.0,9.0,99,-99.99,,,-99.99,,2013-03-16 08:12:00,
2013-03-16 03:23:00,25.0,24.0,-100.00,North,10,2.0,9.0,99,-99.99,,,-99.99,,2013-03-16 08:23:00,
2013-03-16 03:52:00,24.0,23.0,-100.00,NNE,20,4.0,10.0,99,-99.99,,,-99.99,,2013-03-16 08:52:00,
2013-03-16 04:02:00,24.0,23.0,-100.00,NNE,20,4.0,10.0,99,-99.99,,,-99.99,,2013-03-16 09:02:00,
2013-03-16 04:12:00,24.0,23.0,-100.00,NNE,20,4.0,10.0,99,-99.99,,,-99.99,,2013-03-16 09:12:00,
2013-03-16 04:22:00,24.0,23.0,-100.00,NNE,20,4.0,10.0,99,-99.99,,,-99.99,,2013-03-16 09:22:00,
2013-03-16 04:53:00,22.0,22.0,-100.00,NNE,20,3.0,9.0,99,-99.99,,,-99.99,,2013-03-16 09:53:00,
2013-03-16 05:03:00,22.0,22.0,-100.00,NNE,20,3.0,9.0,99,-99.99,,,-99.99,,2013-03-16 10:03:00,
2013-03-16 05:12:00,22.0,22.0,-100.00,NNE,20,3.0,9.0,99,-99.99,,,-99.99,,2013-03-16 10:12:00,
2013-03-16 05:23:00,22.0,22.0,-100.00,NNE,20,3.0,9.0,99,-99.99,,,-99.99,,2013-03-16 10:23:00,
2013-03-16 05:53:00,21.0,20.0,-100.00,North,10,4.0,10.0,99,-99.99,,,-99.99,,2013-03-16 10:53:00,
2013-03-16 06:03:00,21.0,20.0,-100.00,North,10,4.0,10.0,99,-99.99,,,-99.99,,2013-03-16 11:03:00,
2013-03-16 06:12:00,21.0,20.0,-100.00,North,10,4.0,10.0,99,-99.99,,,-99.99,,2013-03-16 11:12:00,
2013-03-16 06:22:00,21.0,20.0,-100.00,North,10,4.0,10.0,99,-99.99,,,-99.99,,2013-03-16 11:22:00,
2013-03-16 06:53:00,19.0,19.0,-100.00,North,10,1.0,9.0,99,-99.99,,,-99.99,,2013-03-16 11:53:00,
2013-03-16 07:02:00,19.0,19.0,-100.00,North,10,1.0,9.0,99,-99.99,,,-99.99,,2013-03-16 12:02:00,
2013-03-16 07:12:00,19.0,19.0,-100.00,North,10,1.0,9.0,99,-99.99,,,-99.99,,2013-03-16 12:12:00,
2013-03-16 07:22:00,19.0,19.0,-100.00,North,10,1.0,9.0,99,-99.99,,,-99.99,,2013-03-16 12:22:00,
2013-03-16 07:53:00,18.0,18.0,-100.00,NNE,15,3.0,9.0,99,-99.99,,,-99.99,,2013-03-16 12:53:00,
2013-03-16 08:02:00,18.0,18.0,-100.00,NNE,15,3.0,9.0,99,-99.99,,,-99.99,,2013-03-16 13:02:00,
2013-03-16 08:12:00,18.0,18.0,-100.00,NNE,15,3.0,9.0,99,-99.99,,,-99.99,,2013-03-16 13:12:00,
2013-03-16 08:22:00,18.0,18.0,-100.00,NNE,15,3.0,9.0,99,-99.99,,,-99.99,,2013-03-16 13:22:00,
2013-03-16 08:53:00,18.0,18.0,-100.00,NNE,20,2.0,9.0,97,-99.99,,,-99.99,,2013-03-16 13:53:00,
2013-03-16 09:02:00,18.0,18.0,-100.00,NNE,20,2.0,9.0,97,-99.99,,,-99.99,,2013-03-16 14:02:00,
2013-03-16 09:12:00,18.0,18.0,-100.00,NNE,20,2.0,9.0,97,-99.99,,,-99.99,,2013-03-16 14:12:00,
2013-03-16 09:22:00,18.0,18.0,-100.00,NNE,20,2.0,9.0,97,-99.99,,,-99.99,,2013-03-16 14:22:00,
2013-03-16 09:52:00,22.0,20.0,-100.00,NNW,340,2.0,7.0,93,-99.99,,,-99.99,,2013-03-16 14:52:00,
2013-03-16 10:03:00,22.0,20.0,-100.00,NNW,340,2.0,7.0,93,-99.99,,,-99.99,,2013-03-16 15:03:00,
2013-03-16 10:12:00,22.0,20.0,-100.00,NNW,340,2.0,7.0,93,-99.99,,,-99.99,,2013-03-16 15:12:00,
2013-03-16 10:22:00,22.0,20.0,-100.00,NNW,340,2.0,7.0,93,-99.99,,,-99.99,,2013-03-16 15:22:00,
2013-03-16 10:53:00,28.0,20.0,-100.00,NNW,340,2.0,6.0,72,-99.99,,,-99.99,,2013-03-16 15:53:00,
2013-03-16 11:03:00,28.0,20.0,-100.00,NNW,340,2.0,6.0,72,-99.99,,,-99.99,,2013-03-16 16:03:00,
2013-03-16 11:12:00,28.0,20.0,-100.00,NNW,340,2.0,6.0,72,-99.99,,,-99.99,,2013-03-16 16:12:00,
2013-03-16 11:22:00,28.0,20.0,-100.00,NNW,340,2.0,6.0,72,-99.99,,,-99.99,,2013-03-16 16:22:00,
2013-03-16 11:53:00,26.0,16.0,-100.00,NNW,340,4.0,9.0,67,-99.99,,,-99.99,,2013-03-16 16:53:00,
2013-03-16 12:03:00,26.0,16.0,-100.00,NNW,340,4.0,9.0,67,-99.99,,,-99.99,,2013-03-16 17:03:00,
2013-03-16 12:13:00,26.0,16.0,-100.00,NNW,340,4.0,9.0,67,-99.99,,,-99.99,,2013-03-16 17:13:00,
2013-03-16 12:23:00,26.0,16.0,-100.00,NNW,340,4.0,9.0,67,-99.99,,,-99.99,,2013-03-16 17:23:00,
2013-03-16 12:30:00,29.0,15.0,-100.00,NW,315,5.0,10.0,56,-99.99,,,-99.99,,2013-03-16 17:30:00,
2013-03-16 12:53:00,29.0,15.0,-100.00,NW,315,5.0,10.0,56,-99.99,,,-99.99,,2013-03-16 17:53:00,
2013-03-16 13:02:00,29.0,15.0,-100.00,NW,315,5.0,10.0,56,-99.99,,,-99.99,,2013-03-16 18:02:00,
2013-03-16 13:13:00,29.0,15.0,-100.00,NW,315,5.0,10.0,56,-99.99,,,-99.99,,2013-03-16 18:13:00,
2013-03-16 13:23:00,29.0,15.0,-100.00,NW,315,5.0,10.0,56,-99.99,,,-99.99,,2013-03-16 18:23:00,
2013-03-16 13:53:00,31.0,14.0,-100.00,NW,320,6.0,11.0,49,-99.99,,,-99.99,,2013-03-16 18:53:00,
2013-03-16 14:02:00,31.0,14.0,-100.00,NW,320,6.0,11.0,49,-99.99,,,-99.99,,2013-03-16 19:02:00,
2013-03-16 14:12:00,31.0,14.0,-100.00,NW,320,6.0,11.0,49,-99.99,,,-99.99,,2013-03-16 19:12:00,
2013-03-16 14:22:00,31.0,14.0,-100.00,NW,320,6.0,11.0,49,-99.99,,,-99.99,,2013-03-16 19:22:00,
2013-03-16 14:53:00,28.0,12.0,-100.00,NW,305,7.0,14.0,51,-99.99,,,-99.99,,2013-03-16 19:53:00,
2013-03-16 15:02:00,28.0,12.0,-100.00,NW,305,7.0,14.0,51,-99.99,,,-99.99,,2013-03-16 20:02:00,
2013-03-16 15:12:00,28.0,12.0,-100.00,NW,305,7.0,14.0,51,-99.99,,,-99.99,,2013-03-16 20:12:00,
2013-03-16 15:22:00,28.0,12.0,-100.00,NW,305,7.0,14.0,51,-99.99,,,-99.99,,2013-03-16 20:22:00,
2013-03-16 15:52:00,31.0,10.0,-100.00,WNW,295,8.0,17.0,42,-99.99,,,-99.99,,2013-03-16 20:52:00,
2013-03-16 16:02:00,31.0,10.0,-100.00,WNW,295,8.0,17.0,42,-99.99,,,-99.99,,2013-03-16 21:02:00,
2013-03-16 16:12:00,31.0,10.0,-100.00,WNW,295,8.0,17.0,42,-99.99,,,-99.99,,2013-03-16 21:12:00,
2013-03-16 16:22:00,31.0,10.0,-100.00,WNW,295,8.0,17.0,42,-99.99,,,-99.99,,2013-03-16 21:22:00,
2013-03-16 16:53:00,29.0,10.0,-100.00,WSW,255,9.0,17.0,45,-99.99,,,-99.99,,2013-03-16 21:53:00,
2013-03-16 17:03:00,29.0,10.0,-100.00,WSW,255,9.0,17.0,45,-99.99,,,-99.99,,2013-03-16 22:03:00,
2013-03-16 17:12:00,29.0,10.0,-100.00,WSW,255,9.0,17.0,45,-99.99,,,-99.99,,2013-03-16 22:12:00,
2013-03-16 17:22:00,29.0,10.0,-100.00,WSW,255,9.0,17.0,45,-99.99,,,-99.99,,2013-03-16 22:22:00,
2013-03-16 17:31:00,28.0,10.0,-100.00,WNW,300,4.0,21.0,47,-99.99,,,-99.99,,2013-03-16 22:31:00,
2013-03-16 17:53:00,28.0,10.0,-100.00,WNW,300,4.0,21.0,47,-99.99,,,-99.99,,2013-03-16 22:53:00,
2013-03-16 18:02:00,28.0,10.0,-100.00,WNW,300,4.0,21.0,47,-99.99,,,-99.99,,2013-03-16 23:02:00,
2013-03-16 18:13:00,28.0,10.0,-100.00,WNW,300,4.0,21.0,47,-99.99,,,-99.99,,2013-03-16 23:13:00,
2013-03-16 18:22:00,28.0,10.0,-100.00,WNW,300,4.0,21.0,47,-99.99,,,-99.99,,2013-03-16 23:22:00,
2013-03-16 18:53:00,26.0,9.0,-100.00,NW,315,7.0,15.0,49,-99.99,,,-99.99,,2013-03-16 23:53:00,
2013-03-16 19:02:00,26.0,9.0,-100.00,NW,315,7.0,15.0,49,-99.99,,,-99.99,,2013-03-17 00:02:00,
2013-03-16 19:12:00,26.0,9.0,-100.00,NW,315,7.0,15.0,49,-99.99,,,-99.99,,2013-03-17 00:12:00,
2013-03-16 19:22:00,26.0,9.0,-100.00,NW,315,7.0,15.0,49,-99.99,,,-99.99,,2013-03-17 00:22:00,
2013-03-16 19:52:00,23.0,8.0,-100.00,WNW,285,6.0,11.0,52,-99.99,,,-99.99,,2013-03-17 00:52:00,
2013-03-16 20:02:00,23.0,8.0,-100.00,WNW,285,6.0,11.0,52,-99.99,,,-99.99,,2013-03-17 01:02:00,
2013-03-16 20:12:00,23.0,8.0,-100.00,WNW,285,6.0,11.0,52,-99.99,,,-99.99,,2013-03-17 01:12:00,
2013-03-16 20:22:00,23.0,8.0,-100.00,WNW,285,6.0,11.0,52,-99.99,,,-99.99,,2013-03-17 01:22:00,
2013-03-16 20:53:00,21.0,7.0,-100.00,WNW,300,7.0,13.0,54,-99.99,,,-99.99,,2013-03-17 01:53:00,
2013-03-16 21:03:00,21.0,7.0,-100.00,WNW,300,7.0,13.0,54,-99.99,,,-99.99,,2013-03-17 02:03:00,
2013-03-16 21:13:00,21.0,7.0,-100.00,WNW,300,7.0,13.0,54,-99.99,,,-99.99,,2013-03-17 02:13:00,
2013-03-16 21:22:00,21.0,7.0,-100.00,WNW,300,7.0,13.0,54,-99.99,,,-99.99,,2013-03-17 02:22:00,
2013-03-16 21:53:00,19.0,6.0,-100.00,NW,325,6.0,11.0,56,-99.99,,,-99.99,,2013-03-17 02:53:00,
2013-03-16 22:02:00,19.0,6.0,-100.00,NW,325,6.0,11.0,56,-99.99,,,-99.99,,2013-03-17 03:02:00,
2013-03-16 22:12:00,19.0,6.0,-100.00,NW,325,6.0,11.0,56,-99.99,,,-99.99,,2013-03-17 03:12:00,
2013-03-16 22:22:00,19.0,6.0,-100.00,NW,325,6.0,11.0,56,-99.99,,,-99.99,,2013-03-17 03:22:00,
2013-03-16 22:53:00,18.0,6.0,-100.00,NW,310,5.0,9.0,59,-99.99,,,-99.99,,2013-03-17 03:53:00,
2013-03-16 23:03:00,18.0,6.0,-100.00,NW,310,5.0,9.0,59,-99.99,,,-99.99,,2013-03-17 04:03:00,
2013-03-16 23:13:00,18.0,6.0,-100.00,NW,310,5.0,9.0,59,-99.99,,,-99.99,,2013-03-17 04:13:00,
2013-03-16 23:23:00,18.0,6.0,-100.00,NW,310,5.0,9.0,59,-99.99,,,-99.99,,2013-03-17 04:23:00,
2013-03-16 23:53:00,16.0,5.0,-100.00,NW,305,4.0,8.0,62,-99.99,,,-99.99,,2013-03-17 04:53:00,